Home > Weather > Rankweil > Past weeks

Flag for Austria Past Weather in Rankweil, Vorarlberg, Austria — Yesterday and Last 2 Weeks

Now
77 °F

Mild.


Feels Like: 79 °F
Forecast: 58 / 84 °F
Wind: 2 mph from Northeast

Location: Feldkirch

Current Time: Jul 28, 2016 at 4:38:23 PM

Latest Report: Jul 28, 2016 at 3:00 PM


Visibility: N/A

Pressure: 29.98 "Hg

Humidity: 58%

Dew Point: 61 °F

Location of RankweilLocation

Past Weather in Rankweil — Graph

°F

Rankweil Temperature Yesterday

Maximum temperature yesterday: 76 °F (at 2:00 PM)
Minimum temperature yesterday: 61 °F (at 6:00 AM)
Average temperature yesterday: 68 °F

High & Low Weather Summary for the Past Weeks

 TemperatureHumidityPressure
High88 °F (Jul 20, 5:00 PM)97% (Jul 23, 6:00 AM)30.37 "Hg (Jul 23, 6:00 AM)
Low46 °F (Jul 16, 5:00 AM)41% (Jul 19, 7:00 PM)29.87 "Hg (Jul 22, 2:00 PM)
Average67 °F75%30.08 "Hg
* Reported Jul 13 3:00 PM — Jul 28 3:00 PM, Rankweil, Weather by CustomWeather, © 2016

Note: Actual official high and low records may vary slightly from our data, if they occured in-between our weather recording intervals... More about our weather records

Advertising

Rankweil Weather History for the Previous 24 Hours

Scroll right to see more
 ConditionsComfort  
Time TempWeatherWind HumidityBarometerVisibility
3:00 PM
Thu, Jul 28
77 °FMild.2 mph58%29.98 "HgN/A
2:00 PM74 °FMild.2 mph65%30.00 "HgN/A
1:00 PM74 °FMild.2 mph64%30.01 "HgN/A
12:00 PM74 °FMild.1 mph66%30.02 "HgN/A
11:00 AM72 °FMild.1 mph67%30.03 "HgN/A
10:00 AM71 °FMild.1 mph68%30.03 "HgN/A
9:00 AM65 °FMild.1 mph77%30.06 "HgN/A
8:00 AM62 °FCool.1 mph87%30.07 "HgN/A
7:00 AM60 °FPassing clouds.1 mph92%30.08 "Hg19 mi
6:00 AM61 °FCool.No wind90%30.08 "HgN/A
5:00 AM62 °FCool.1 mph89%30.07 "HgN/A
4:00 AM63 °FMild.2 mph87%30.07 "HgN/A
3:00 AM64 °FMild.1 mph85%30.08 "HgN/A
2:00 AM64 °FMild.No wind87%30.09 "HgN/A
1:00 AM64 °FMild.1 mph89%30.09 "HgN/A
11:00 PM
Wed, Jul 27
66 °FMild.1 mph78%30.06 "HgN/A
10:00 PM67 °FMild.2 mph75%30.05 "HgN/A
9:00 PM67 °FMild.2 mph75%30.04 "HgN/A
8:00 PM69 °FMild.3 mph70%30.01 "HgN/A
7:00 PM71 °FMild.1 mph75%30.01 "HgN/A
6:00 PM72 °FMild.1 mph70%30.00 "HgN/A
5:00 PM74 °FMild.1 mph75%30.00 "HgN/A
4:00 PM69 °FMild.1 mph84%30.01 "HgN/A
Weather by CustomWeather, © 2016

See weather overviewHow to use our weather pages